Volver al catálogo

FREGAT DEB

ActivoUNKNOWN
NORAD 45840·DEBRIS·🇷🇺 Russia

Lanzado Jul 18, 2011 desde Baikonur Cosmodrome

Loading…

Próximos Pases (próximas 24 horas)

TLE

ActualizadoSource: Space-Track

Época: Sep 14, 2026, 02:03 UTC

1 45840U 11037CA  26257.08589226  .00014131  00000-0  44690-2 0  9990
2 45840  51.5449 139.0012 1874140  33.3085 337.2702 11.22674266246579

Sigue FREGAT DEB en tiempo real con AllMySat

Download on the App Store